KOSETICE Weather Reports


time (UTC)temp
F
wind
direction
speed
knots
gust
knots
rain 1hr
in
rain 24hr
in
rain mn
in
humidity
%
barometer
mb
20260905222327 57 280 7.8 0.0 0.00 0.00 0.00 58
20260905211923 57 280 10.4 0.0 0.00 0.00 0.00 58
20260905201925 61 280 10.4 0.0 0.00 0.00 0.00 55
20260905192354 63 270 10.4 0.0 0.00 0.00 0.00 51
20260905181942 64 270 12.2 0.0 0.00 0.00 0.00 55
20260905171942 66 270 12.2 0.0 0.00 0.00 0.00 55
20260905162348 68 270 12.2 0.0 0.00 0.00 0.00 52
20260905151917 68 260 10.4 20.9 0.00 0.00 0.00 49
20260905141834 66 260 10.4 25.2 0.00 0.00 0.00 55
20260905132125 66 260 10.4 25.2 0.00 0.00 0.00 55
20260905122039 66 270 7.8 22.6 0.00 0.00 0.00 52
20260905111948 66 270 7.8 22.6 0.00 0.00 0.00 55
20260905102426 64 280 7.8 19.1 0.00 0.00 0.00 59
20260905092005 63 280 7.8 19.1 0.00 0.00 0.00 67
20260905081929 59 280 7.8 17.4 0.00 0.00 0.00 77
20260905072230 57 280 7.8 0.0 0.00 0.00 0.00 87
20260905061930 55 270 7.8 0.0 0.00 0.00 0.00 87
20260905051928 54 270 7.8 0.0 0.00 0.00 0.00 87
20260905042332 55 270 7.8 0.0 0.00 0.00 0.00 87
20260905031929 59 270 7.8 0.0 0.00 0.00 0.00 72
20260905021929 61 260 7.8 0.0 0.00 0.00 0.00 67
20260905012231 63 250 10.4 22.6 0.00 0.00 0.00 63
20260905001943 63 240 10.4 22.6 0.00 0.00 0.00 72
20260904232026 72 240 10.4 0.0 0.00 0.00 0.00 56